Total_Precipitation_Accumulation
0.95 1.08 1.16 1.35 1.62 1.80 1.80 1.61 1.14 0.79 0.74 0.94 1.27 2.72 3.79 3.36 1.46 0.93 0.61 0.72 0.64 0.82 1.14 0.92 0.48 0.44 0.54 0.41 0.61 0.95 1.15 0.67 0.14 0.04 0.03 0.03 0.02 0.02 0.02 0.04 0.09 0.16 0.19 0.18 0.47
1.18 1.38 1.84 2.16 2.24 2.24 1.92 1.65 0.99 0.70 0.69 0.83 1.36 2.64 4.03 2.86 1.29 0.86 0.98 1.35 1.18 1.45 1.28 1.20 0.58 0.71 0.66 0.63 0.94 1.46 1.35 0.40 0.09 0.07 0.04 0.07 0.03 0.01 0.03 0.04 0.57 0.63 0.34 0.53 0.55
1.29 1.52 1.83 2.75 3.41 3.87 3.26 1.59 0.82 0.62 0.63 0.78 1.19 3.24 3.99 2.39 1.46 0.58 0.75 1.28 1.60 1.61 1.17 0.93 0.79 1.12 0.73 0.78 0.76 1.12 1.11 0.29 0.29 0.26 0.26 0.16 0.07 0.02 0.06 0.06 0.19 1.70 0.96 0.82 0.78
1.11 1.36 1.69 1.66 2.56 3.08 2.58 1.28 1.13 0.79 0.62 0.78 1.62 3.61 3.48 1.75 0.83 0.30 0.83 1.03 1.41 1.75 1.26 1.50 1.24 1.38 0.73 0.47 0.44 0.61 0.63 0.43 0.47 0.47 0.48 0.19 0.13 0.09 0.15 0.09 0.14 0.52 1.32 1.41 1.20
0.99 1.16 1.26 1.64 2.16 2.39 1.74 1.38 1.28 1.14 0.98 1.09 2.06 3.57 2.61 1.76 0.60 0.44 0.83 0.66 1.15 1.64 0.97 1.32 1.21 1.13 0.63 0.32 0.47 0.49 0.58 0.57 0.71 0.62 0.47 0.33 0.21 0.13 0.11 0.12 0.14 0.55 0.83 1.30 1.74
0.89 0.87 0.89 1.15 1.45 1.62 1.38 1.31 1.27 1.08 1.08 1.35 2.32 2.86 1.94 1.35 0.54 0.58 0.60 0.71 0.84 1.09 0.89 1.22 1.06 1.04 0.69 0.44 0.49 0.30 0.56 0.73 0.99 0.79 0.86 0.47 0.25 0.19 0.07 0.12 0.30 0.76 1.66 0.92 1.27
0.84 0.83 0.75 1.04 1.27 1.34 1.29 1.23 1.13 0.93 1.13 1.51 2.04 2.12 1.75 1.20 0.80 0.84 0.41 0.80 1.16 0.86 0.94 0.97 1.02 1.28 0.85 0.52 0.35 0.38 0.78 1.05 1.10 1.24 1.23 0.89 0.72 0.22 0.05 0.13 0.51 1.02 1.72 2.31 1.30
0.88 0.77 0.71 0.89 0.93 0.94 0.90 0.84 0.91 1.10 1.39 1.90 2.36 1.80 2.07 1.19 0.75 0.53 0.29 0.47 0.86 1.13 1.10 1.20 0.84 1.08 0.79 0.53 0.53 0.78 1.08 1.06 0.93 1.30 1.92 1.56 0.81 0.19 0.10 0.18 0.39 0.78 1.19 1.55 2.76
0.92 0.90 0.97 1.05 0.97 1.01 1.05 1.09 0.99 0.94 1.43 2.12 2.12 1.69 1.99 1.45 0.70 0.25 0.26 0.43 0.79 1.56 1.99 2.11 1.74 1.28 0.76 0.86 0.87 0.75 0.70 0.80 0.76 0.77 1.88 1.76 1.02 0.40 0.22 0.16 0.22 0.45 0.88 1.55 2.10
1.09 1.35 1.29 0.97 1.10 1.16 1.13 1.98 2.01 1.02 1.61 1.97 1.75 1.73 1.71 1.34 0.56 0.28 0.35 0.58 1.02 1.98 2.71 2.91 2.73 1.59 0.66 0.83 0.78 0.84 0.40 0.44 0.70 0.62 1.10 1.62 0.99 0.72 0.41 0.26 0.16 0.35 0.62 0.99 1.84
1.17 1.19 0.97 0.94 0.93 0.82 1.02 1.78 1.96 2.11 2.32 1.89 1.04 0.79 0.94 0.94 0.58 0.55 0.54 0.77 1.65 2.39 2.46 2.53 2.09 1.31 0.37 0.23 0.25 0.21 0.33 0.26 0.54 0.72 0.54 0.90 0.90 0.74 0.51 0.53 0.23 0.29 0.37 0.62 1.16
0.93 0.87 0.83 0.88 1.00 1.19 1.33 1.58 1.29 1.75 2.66 1.85 0.78 0.61 0.64 0.58 0.84 0.71 0.85 1.49 1.82 2.21 1.99 2.18 1.34 0.79 0.63 0.34 0.31 0.29 0.31 0.27 0.42 0.71 0.63 0.58 0.67 0.50 0.51 0.37 0.30 0.25 0.47 0.51 0.78
0.80 0.76 0.79 0.95 1.03 1.40 1.30 1.01 1.01 1.12 2.05 2.28 1.29 1.07 0.85 0.58 0.89 0.78 1.15 1.54 1.63 1.53 1.24 1.32 0.67 0.40 0.62 0.55 0.47 0.28 0.27 0.21 0.41 0.47 0.43 0.49 0.60 0.45 0.37 0.29 0.18 0.15 0.38 0.62 0.58
0.90 0.96 1.03 1.17 1.35 1.02 1.27 0.94 0.83 1.14 1.69 2.01 1.23 1.16 0.65 1.07 1.26 0.57 1.63 1.59 1.70 1.35 1.03 1.18 0.70 0.47 0.46 0.77 0.43 0.34 0.15 0.25 0.52 0.65 0.55 0.46 0.67 0.47 0.30 0.29 0.19 0.15 0.14 0.43 0.81
1.29 1.09 0.93 1.28 1.31 1.16 0.86 0.64 0.87 1.50 1.82 1.42 1.07 0.75 0.89 0.88 0.66 0.79 1.30 1.20 1.09 1.08 1.06 0.96 0.61 0.70 0.52 0.79 0.41 0.48 0.19 0.24 0.42 0.75 1.11 0.44 0.76 0.56 0.42 0.32 0.17 0.09 0.16 0.29 0.48
1.25 1.18 1.07 1.05 0.98 0.98 0.84 0.61 1.28 1.68 2.25 2.04 1.51 1.31 0.78 0.56 0.53 0.97 1.32 0.99 0.91 0.95 1.00 0.59 0.44 0.88 0.75 0.59 0.55 0.43 0.46 0.45 0.69 1.00 1.51 0.55 0.70 0.72 0.59 0.55 0.32 0.09 0.24 0.37 0.43
1.21 1.41 1.31 0.79 0.89 0.85 1.31 1.13 1.53 1.28 1.21 1.46 1.17 0.57 0.40 0.52 0.83 1.15 1.22 0.79 1.12 1.57 1.45 1.24 0.99 0.84 0.76 0.99 1.04 0.73 0.99 1.62 1.65 1.91 0.98 0.55 0.71 0.78 0.63 0.40 0.36 0.28 0.42 0.55 0.54
1.42 1.45 1.47 1.01 0.94 0.99 1.80 1.29 1.22 0.87 0.98 0.82 0.41 0.39 0.50 0.39 0.57 0.75 0.98 0.50 0.31 0.47 0.78 0.96 1.41 1.19 0.78 0.87 1.22 0.97 0.94 1.30 1.09 0.84 0.70 0.38 0.88 1.06 0.88 0.71 0.65 0.51 0.78 1.19 1.32
1.77 1.97 1.74 1.48 1.20 1.32 1.48 1.21 1.04 0.95 0.94 0.47 0.32 0.37 0.40 0.18 0.28 0.53 0.43 0.24 0.15 0.16 0.63 0.48 0.76 0.58 0.77 0.62 0.81 0.84 0.87 0.77 1.11 0.59 0.65 0.63 0.99 1.23 1.31 1.24 0.73 1.24 1.47 1.54 1.83
2.35 2.66 1.63 1.35 1.47 1.46 1.32 1.06 0.64 0.41 0.28 0.18 0.29 0.14 0.10 0.06 0.11 0.12 0.17 0.07 0.11 0.04 0.21 0.37 0.75 0.96 0.85 0.78 0.65 0.60 0.47 0.78 1.36 0.97 0.63 0.43 0.55 1.63 1.76 1.33 1.13 1.27 1.34 1.46 1.78
2.36 2.50 1.68 1.75 2.08 2.06 1.56 1.13 0.45 0.18 0.15 0.15 0.09 0.04 0.02 0.02 0.05 0.13 0.14 0.07 0.06 0.14 0.23 0.55 1.00 1.03 1.06 0.78 0.53 0.71 0.77 0.47 0.61 0.52 0.45 0.28 0.79 1.41 1.42 1.13 0.92 0.91 0.94 1.00 1.08
2.22 2.01 1.92 2.35 2.56 1.80 1.08 0.78 0.47 0.16 0.17 0.14 0.12 0.03 0.01 0.02 0.04 0.13 0.12 0.09 0.03 0.11 0.32 0.41 0.80 0.81 0.65 0.18 0.13 0.25 0.27 0.20 0.73 0.54 0.41 0.41 0.85 0.96 0.92 0.80 0.61 0.47 0.29 0.22 0.17
2.00 1.85 2.76 1.57 1.10 0.73 0.47 0.44 0.30 0.10 0.15 0.19 0.12 0.01 0.01 0.03 0.03 0.02 0.01 0.01 0.00 0.02 0.20 0.44 1.01 0.82 0.70 0.48 0.49 0.69 0.33 0.37 0.63 1.00 0.77 0.43 0.54 0.25 0.24 0.21 0.14 0.04 0.02 0.03 0.06
1.87 1.90 3.74 2.47 0.61 0.18 0.42 0.46 0.30 0.06 0.08 0.14 0.12 0.03 0.05 0.03 0.01 0.01 0.00 0.00 0.00 0.00 0.16 0.72 0.81 0.86 0.71 0.63 0.88 0.72 0.34 0.53 1.08 1.15 0.37 0.18 0.10 0.05 0.03 0.01 0.02 0.04 0.04 0.02 0.03
1.31 0.79 0.85 0.98 0.50 0.11 0.36 0.34 0.37 0.23 0.13 0.17 0.12 0.04 0.07 0.04 0.01 0.01 0.00 0.00 0.00 0.00 0.16 0.66 1.15 1.28 0.54 0.32 0.69 0.60 0.31 0.43 0.98 0.55 0.51 0.16 0.06 0.03 0.04 0.05 0.07 0.09 0.08 0.06 0.06
0.80 0.61 0.12 0.07 0.06 0.16 0.23 0.28 0.34 0.34 0.28 0.20 0.15 0.04 0.04 0.05 0.01 0.01 0.01 0.01 0.01 0.01 0.15 0.55 0.95 0.81 0.34 0.20 0.40 0.47 0.23 0.35 0.56 0.41 0.30 0.12 0.11 0.06 0.04 0.06 0.06 0.17 0.11 0.08 0.08
0.74 0.54 0.20 0.14 0.13 0.10 0.08 0.12 0.23 0.37 0.24 0.09 0.09 0.11 0.07 0.03 0.01 0.00 0.00 0.00 0.00 0.01 0.07 0.36 0.63 0.82 0.65 0.41 0.55 0.52 0.26 0.31 0.41 0.35 0.24 0.14 0.12 0.04 0.05 0.12 0.27 0.46 0.11 0.05 0.02